Wind_Speed
8 8 8 8 8 9 9 9 9 9 10 11 11 12 12 13 14 14 15 15 15 15 15 14 13 12 10 9 9 8 7 6 6 5 5 5 4 4 3 3 2 2 1
9 9 9 9 10 10 11 11 11 11 12 12 13 13 13 14 15 15 15 15 16 16 16 15 14 13 12 11 10 8 7 6 5 5 5 5 4 4 3 2 2 2 1
9 10 10 11 11 11 12 13 13 13 13 14 15 15 15 16 16 16 16 16 16 17 16 16 15 14 13 12 10 9 8 7 6 5 5 4 4 4 3 2 2 2 2
10 10 11 11 12 13 13 14 15 15 15 16 16 16 17 17 17 18 18 18 18 17 16 16 16 16 14 13 12 10 9 8 6 5 5 4 4 4 3 3 3 2 2
10 10 11 12 13 14 15 16 16 17 17 17 18 18 18 19 19 19 20 20 19 18 17 17 17 17 16 15 13 12 11 9 7 6 5 4 4 3 3 3 3 3 3
10 11 12 13 14 15 16 17 18 18 19 20 20 20 21 20 21 21 21 21 20 20 19 19 18 18 17 16 15 13 12 11 9 7 6 4 4 3 3 3 4 4 4
11 12 13 14 15 16 17 17 19 20 21 21 22 21 22 22 22 22 22 22 22 22 21 20 20 19 18 17 16 15 14 12 11 9 7 6 5 4 4 4 4 4 4
12 14 15 15 16 16 17 19 20 21 22 23 23 23 23 24 23 24 24 24 24 23 23 22 21 20 19 19 17 17 16 14 12 11 9 7 6 6 5 5 5 5 5
13 14 15 16 16 17 18 19 20 21 22 23 24 25 25 25 25 25 25 24 25 24 24 24 22 21 21 20 19 18 17 16 15 13 11 10 8 7 6 6 6 6 6
13 14 15 16 16 17 18 19 19 20 21 22 23 25 26 25 25 26 26 25 25 25 25 25 24 23 22 22 21 20 19 18 17 15 14 12 10 9 8 8 8 7 6
13 13 15 15 16 16 17 17 18 18 20 21 22 23 25 26 26 27 27 27 27 27 26 26 26 25 23 22 22 21 20 19 19 18 16 14 13 11 10 9 9 8 8
12 13 13 14 15 16 16 17 17 18 18 19 20 22 23 25 26 27 27 28 28 28 27 26 26 26 25 24 23 22 22 21 20 20 18 16 15 13 12 11 10 10 9
11 11 12 14 15 16 16 16 16 17 18 18 19 20 21 23 24 25 27 27 27 28 29 28 27 27 27 26 25 24 23 23 22 21 20 18 17 15 14 13 12 11 11
10 11 13 14 15 15 15 15 16 16 17 17 18 18 19 20 21 23 24 25 26 27 28 29 28 27 27 27 27 26 24 24 24 23 22 20 19 17 16 15 13 13 13
10 12 13 14 14 15 15 15 16 16 16 16 17 17 18 19 20 20 21 23 23 25 26 28 28 27 27 27 27 27 26 26 25 24 24 22 21 20 19 17 15 15 14
11 12 13 14 15 16 16 16 16 16 16 16 17 17 17 18 19 20 20 21 22 23 24 25 26 26 26 27 27 27 27 27 26 26 25 24 23 22 21 20 18 17 16
11 12 13 14 15 16 16 16 15 16 16 17 17 17 17 18 18 19 20 20 21 22 23 24 25 26 26 27 26 26 27 28 28 28 27 26 25 23 22 22 20 19 17
10 12 13 14 15 16 16 16 16 16 17 17 17 17 17 17 17 17 18 20 20 21 22 24 24 26 26 26 27 26 27 28 29 29 29 28 27 25 24 24 23 21 20
11 12 13 14 15 16 16 16 17 17 17 17 16 17 16 16 16 16 17 18 19 19 21 22 24 25 26 26 26 26 27 29 29 30 30 30 28 27 26 25 24 23 22
10 12 13 14 15 16 16 17 18 17 17 17 16 16 16 15 15 15 15 16 16 17 18 20 22 24 24 25 26 27 28 30 29 29 30 31 30 29 28 27 25 24 24
10 11 13 14 15 16 17 18 18 18 17 17 17 16 15 14 13 13 13 13 13 14 16 17 19 21 23 24 25 26 27 29 29 29 30 31 31 31 30 29 27 26 25
10 11 12 14 15 16 17 18 18 18 18 17 17 17 16 14 13 12 11 11 11 12 13 15 17 19 21 23 24 26 27 28 30 29 30 31 32 32 31 30 29 28 27
9 11 12 14 15 16 17 18 18 19 18 18 18 17 16 14 12 10 10 10 9 10 10 12 15 17 19 21 23 25 27 28 28 29 31 31 32 33 33 32 31 30 30
9 10 12 14 15 16 17 18 19 19 19 19 19 18 16 14 12 10 9 9 8 8 8 10 11 14 16 18 21 23 25 26 28 28 30 31 32 33 33 33 32 31 31
8 10 11 13 15 17 18 18 19 19 20 20 19 18 17 14 12 11 10 8 8 7 7 7 9 11 13 15 18 21 22 25 26 27 27 29 31 32 33 33 33 32 32
8 9 11 13 15 17 18 18 19 20 20 20 19 19 17 15 13 11 10 9 8 7 5 5 7 9 11 13 15 18 20 22 24 26 26 28 30 31 32 33 34 33 33
Wind_Direction
289 288 286 276 271 268 266 265 262 254 251 252 254 254 251 251 249 248 246 242 240 240 243 243 242 244 248 253 261 272 280 284 294 303 309 314 314 313 312 312 305 294 292
289 286 288 282 278 276 270 264 262 258 255 254 254 255 254 252 251 250 248 246 242 244 244 242 242 244 245 249 255 262 269 275 285 293 300 305 302 299 298 292 277 261 251
292 286 287 282 281 279 277 270 266 263 259 258 256 255 255 253 251 250 250 249 248 245 243 242 241 242 244 247 249 252 257 265 273 280 289 295 294 286 280 268 257 233 230
295 292 289 284 282 280 280 279 273 268 266 262 260 258 257 253 251 251 250 249 249 246 243 242 240 239 242 245 245 246 249 255 260 264 273 281 282 273 263 250 231 212 211
297 296 291 288 285 283 281 280 276 271 269 268 265 261 259 256 254 254 253 251 250 248 246 246 243 241 242 242 243 245 245 245 249 251 256 264 264 255 250 234 214 199 197
299 298 296 292 288 285 282 278 274 273 272 271 269 265 263 260 256 256 255 252 250 249 248 245 243 242 242 242 241 242 241 240 239 239 242 245 243 234 233 224 210 198 193
299 296 297 295 292 289 285 281 277 274 273 271 270 268 266 264 260 258 259 255 251 248 247 246 242 241 239 241 239 238 237 235 234 232 234 234 229 221 220 212 203 197 189
301 300 299 296 293 289 286 284 280 277 274 272 271 269 267 265 265 261 259 256 253 250 248 247 244 241 241 239 237 236 233 232 231 226 227 227 224 221 216 207 202 197 191
307 306 304 301 298 295 292 288 284 281 277 275 273 270 268 268 266 263 261 257 254 252 248 245 244 245 244 240 236 236 233 230 228 225 223 222 220 218 213 206 202 199 195
313 310 308 306 303 299 296 292 288 285 282 278 275 272 268 267 265 262 260 257 253 252 251 248 247 245 244 241 236 235 232 230 227 223 222 219 217 216 213 206 203 201 199
315 315 314 313 311 308 304 299 294 291 287 284 279 275 271 268 266 264 260 257 254 252 252 250 247 246 244 242 237 237 236 231 225 222 220 218 215 214 211 207 204 203 201
323 324 323 323 320 317 312 307 302 296 292 289 284 279 275 271 268 266 263 260 257 254 252 250 245 244 242 242 237 235 235 232 226 221 218 217 215 213 210 207 206 205 203
329 329 329 328 327 324 319 313 308 303 298 294 289 284 279 276 271 268 264 262 260 257 254 251 246 244 241 241 239 236 235 231 226 221 218 217 215 212 210 209 209 209 205
332 332 332 331 330 328 324 319 315 311 306 300 295 291 284 280 277 273 268 264 260 257 254 251 247 244 240 238 238 236 233 230 226 222 218 217 216 214 212 211 211 211 206
332 335 335 336 335 332 329 323 318 315 311 307 301 295 291 286 281 277 272 267 261 257 254 251 249 244 241 237 236 235 233 228 224 222 219 218 218 216 214 213 214 212 209
336 339 341 340 339 336 333 329 325 320 316 311 307 302 296 291 285 279 273 269 264 258 254 250 248 245 242 237 235 233 232 228 224 222 219 218 217 216 216 216 214 213 211
340 343 344 344 344 343 340 336 331 326 321 316 312 307 301 296 289 281 274 270 266 261 254 250 245 244 242 237 233 232 229 226 224 222 220 218 219 219 219 216 215 213 213
345 346 348 349 349 349 347 344 340 334 328 323 317 312 307 301 293 285 277 272 268 264 256 249 244 243 240 237 233 229 227 226 224 222 222 220 220 219 220 218 216 216 215
347 350 352 352 351 350 350 349 346 341 336 331 324 318 313 307 300 293 285 276 269 265 257 249 244 242 239 237 233 229 227 225 224 222 223 221 220 221 222 220 219 218 217
351 353 355 356 355 355 354 352 350 346 342 339 335 328 320 313 305 297 292 283 273 266 259 251 244 242 239 236 232 229 227 226 224 223 223 222 221 222 221 219 219 220 220
352 355 357 358 358 357 356 354 353 352 349 346 343 337 330 322 313 304 297 289 279 268 261 253 244 240 237 234 231 229 228 226 224 223 222 221 220 221 221 221 221 221 221
352 356 358 359 359 359 359 359 358 356 354 352 349 346 340 332 322 315 307 298 286 273 263 255 247 241 237 234 232 230 227 226 225 224 223 223 221 220 220 221 222 223 223
352 357 359 359 359 360 1 0 360 359 357 355 354 351 347 341 334 327 319 310 297 282 269 259 249 241 235 232 231 230 227 225 223 224 225 224 223 222 222 222 223 225 224
352 356 358 359 360 1 1 1 1 1 1 359 357 356 355 351 345 340 331 322 312 296 277 262 249 238 233 231 229 228 227 226 222 223 224 226 225 224 224 225 225 226 226
351 355 357 359 1 1 1 1 2 2 2 2 1 1 0 358 354 348 342 334 324 309 289 265 248 237 231 228 227 225 224 224 224 222 223 225 225 225 225 225 226 228 228
348 352 355 358 0 2 2 3 3 4 4 4 5 5 4 1 357 351 346 343 334 320 301 275 249 235 229 227 223 222 223 226 225 224 226 226 225 226 228 227 228 229 229
Height
5881 5880 5879 5879 5878 5878 5878 5877 5877 5877 5877 5876 5876 5876 5876 5876 5876 5876 5876 5876 5877 5877 5878 5878 5879 5880 5880 5880 5880 5880 5880 5880 5880 5879 5878 5878 5877 5876 5876 5875 5875 5874 5874
5879 5878 5877 5877 5876 5876 5875 5875 5875 5875 5874 5874 5874 5874 5874 5874 5874 5874 5874 5874 5874 5875 5875 5876 5877 5877 5878 5878 5879 5879 5879 5879 5878 5878 5877 5877 5876 5875 5875 5874 5874 5874 5874
5877 5876 5875 5875 5874 5873 5873 5872 5872 5872 5872 5871 5871 5871 5871 5871 5871 5871 5871 5871 5872 5872 5872 5873 5874 5875 5876 5876 5876 5877 5877 5877 5877 5877 5876 5876 5875 5875 5874 5874 5874 5873 5873
5875 5874 5873 5872 5872 5871 5870 5869 5869 5869 5869 5868 5868 5868 5868 5868 5868 5868 5868 5868 5869 5869 5870 5870 5871 5872 5873 5874 5874 5875 5875 5875 5875 5875 5875 5874 5874 5874 5874 5873 5873 5873 5873
5873 5872 5871 5870 5869 5868 5867 5866 5866 5866 5865 5865 5865 5864 5864 5864 5864 5864 5864 5865 5865 5866 5867 5867 5868 5869 5870 5871 5872 5872 5873 5874 5874 5874 5874 5873 5873 5873 5873 5873 5873 5873 5873
5871 5869 5868 5867 5866 5865 5864 5863 5862 5862 5861 5861 5860 5860 5860 5860 5860 5860 5860 5861 5861 5862 5863 5864 5865 5866 5867 5868 5869 5870 5871 5871 5872 5872 5872 5872 5872 5872 5872 5872 5872 5872 5873
5869 5867 5866 5864 5863 5861 5860 5859 5858 5858 5857 5856 5856 5855 5855 5855 5856 5855 5856 5856 5857 5858 5858 5859 5861 5862 5863 5865 5866 5867 5868 5869 5870 5870 5871 5871 5871 5871 5871 5871 5871 5872 5872
5866 5865 5863 5861 5860 5858 5857 5855 5854 5853 5852 5852 5851 5851 5851 5851 5851 5851 5851 5851 5852 5853 5854 5855 5856 5858 5859 5861 5862 5863 5865 5866 5867 5868 5869 5870 5870 5870 5870 5870 5871 5871 5872
5863 5862 5860 5858 5856 5854 5853 5852 5850 5849 5848 5847 5846 5846 5846 5846 5845 5845 5846 5847 5847 5848 5849 5850 5852 5853 5855 5857 5858 5860 5861 5863 5864 5866 5867 5868 5868 5869 5869 5869 5870 5871 5871
5861 5859 5857 5855 5853 5851 5849 5848 5846 5845 5843 5842 5841 5840 5840 5840 5839 5840 5840 5841 5842 5843 5844 5845 5847 5848 5850 5852 5854 5856 5857 5859 5861 5863 5864 5865 5866 5867 5868 5868 5869 5870 5871
5859 5856 5854 5852 5850 5847 5845 5843 5842 5840 5838 5837 5836 5835 5834 5834 5833 5833 5834 5835 5836 5837 5838 5840 5842 5843 5845 5847 5849 5851 5853 5855 5857 5859 5861 5863 5864 5865 5866 5867 5868 5869 5870
5856 5854 5852 5849 5847 5844 5842 5840 5838 5836 5834 5832 5831 5830 5828 5828 5827 5827 5827 5828 5829 5830 5832 5834 5835 5838 5840 5842 5844 5847 5849 5851 5853 5855 5858 5860 5862 5863 5864 5865 5867 5868 5869
5854 5852 5850 5847 5845 5842 5839 5837 5834 5832 5830 5828 5826 5825 5823 5822 5822 5821 5821 5822 5823 5824 5825 5827 5829 5831 5834 5837 5839 5842 5844 5846 5849 5851 5854 5857 5859 5861 5862 5864 5865 5866 5867
5853 5851 5848 5845 5843 5840 5837 5834 5831 5829 5826 5824 5822 5820 5819 5817 5816 5816 5815 5816 5817 5818 5819 5821 5823 5825 5828 5831 5834 5837 5839 5842 5845 5847 5850 5853 5856 5858 5860 5861 5863 5865 5866
5852 5849 5847 5844 5841 5837 5834 5831 5828 5826 5823 5820 5818 5816 5814 5812 5811 5810 5810 5810 5810 5811 5813 5814 5816 5819 5822 5825 5828 5831 5834 5837 5840 5843 5846 5849 5852 5855 5857 5859 5861 5863 5864
5850 5848 5845 5842 5839 5835 5832 5829 5826 5822 5819 5817 5814 5812 5810 5808 5806 5805 5805 5805 5805 5805 5807 5808 5810 5813 5816 5819 5822 5826 5829 5832 5835 5839 5842 5845 5848 5851 5854 5856 5858 5860 5862
5849 5846 5843 5840 5837 5833 5830 5826 5823 5820 5816 5813 5810 5808 5805 5803 5801 5800 5799 5799 5799 5799 5800 5802 5804 5807 5810 5813 5817 5820 5823 5826 5830 5834 5837 5841 5844 5847 5850 5852 5855 5857 5859
5848 5845 5842 5838 5835 5831 5828 5824 5820 5817 5813 5810 5807 5804 5801 5798 5796 5795 5794 5793 5793 5793 5794 5796 5798 5801 5804 5807 5811 5814 5817 5821 5824 5828 5832 5836 5839 5843 5846 5849 5851 5854 5856
5847 5844 5841 5837 5834 5830 5826 5822 5818 5814 5810 5807 5803 5800 5797 5794 5792 5790 5789 5788 5788 5788 5789 5790 5792 5795 5798 5801 5805 5808 5811 5815 5818 5823 5827 5831 5834 5838 5841 5844 5847 5850 5853
5846 5843 5840 5836 5832 5829 5825 5821 5817 5812 5808 5804 5800 5797 5794 5791 5788 5786 5784 5783 5782 5783 5783 5785 5786 5789 5792 5795 5799 5802 5805 5809 5813 5817 5821 5825 5829 5833 5837 5840 5843 5846 5849
5845 5842 5839 5835 5832 5828 5824 5819 5815 5811 5806 5802 5798 5794 5791 5787 5785 5782 5780 5779 5778 5778 5778 5779 5781 5784 5786 5789 5793 5796 5799 5803 5807 5811 5815 5820 5824 5827 5831 5835 5838 5842 5845
5844 5841 5838 5835 5831 5827 5823 5818 5814 5809 5805 5801 5796 5792 5788 5785 5782 5779 5777 5776 5775 5774 5774 5775 5776 5779 5781 5784 5787 5790 5794 5798 5801 5805 5809 5814 5818 5822 5826 5830 5833 5837 5840
5843 5841 5837 5834 5830 5826 5822 5818 5813 5809 5804 5800 5795 5791 5786 5782 5779 5777 5775 5773 5772 5771 5771 5771 5772 5774 5777 5779 5782 5785 5789 5792 5796 5800 5804 5808 5812 5816 5820 5824 5828 5831 5835
5843 5840 5837 5834 5830 5826 5821 5817 5813 5808 5803 5799 5794 5789 5785 5781 5778 5775 5773 5771 5769 5768 5768 5768 5769 5770 5772 5775 5777 5780 5784 5787 5791 5795 5799 5803 5807 5810 5814 5818 5822 5826 5829
5842 5839 5836 5833 5829 5825 5821 5817 5812 5808 5803 5798 5793 5789 5784 5780 5777 5774 5771 5769 5768 5766 5766 5765 5766 5767 5769 5771 5773 5776 5779 5782 5786 5790 5793 5797 5801 5805 5809 5812 5816 5820 5823
5841 5839 5836 5833 5829 5825 5821 5816 5812 5807 5802 5798 5793 5788 5784 5780 5776 5773 5770 5768 5766 5765 5764 5763 5764 5764 5766 5768 5770 5772 5775 5778 5781 5785 5788 5791 5795 5799 5802 5806 5810 5813 5817